Location: *
(58.4167°N, 22.5000°E)
Time: 05:24:44
(UTC+00:00)

Cosmos 2278 Rocket - Pass Details

Date: 22 September 2019
Orbit: 839 x 847 km, 71.0° (Epoch: 22 October)

Event Time Altitude Azimuth Distance (km) Brightness Sun altitude
Exits shadow 22:26:47 29° 73° (ENE) 1,501 3.6 -31.4°
Drops below altitude 10° 22:30:08 10° 46° (NE) 2,482 5.1 -31.4°
Sets 22:32:44 0° 38° (NE) 3,422 6.1 -31.4°
